This is the latest recevied weather packets stored in our database for station/object KC9GSD. If no packets are shown the sender has not sent any weather packets the latest 10 day(s).
| Time | Temp. | Humidity | Pressure | Rain* | Wind** | Luminosity | Snow |
|---|---|---|---|---|---|---|---|
| 1778346660 | 21.11° C | 69% | 1012.1 hPa | 0 mm | - | 433 W/m² | - |
| 1778346356 | 21.11° C | 76% | 1012 hPa | 0 mm | - | 378 W/m² | - |
| 1778346052 | 20.56° C | 73% | 1012.1 hPa | 0 mm | - | 354 W/m² | - |
| 1778345751 | 21.67° C | 71% | 1012.2 hPa | 0 mm | - | 607 W/m² | - |
| 1778345446 | 21.67° C | 70% | 1012.5 hPa | 0 mm | - | 710 W/m² | - |
| 1778345143 | 21.11° C | 76% | 1012.5 hPa | 0 mm | - | 634 W/m² | - |
| 1778344843 | 20.56° C | 75% | 1012.5 hPa | 0 mm | - | 510 W/m² | - |
| 1778344542 | 20° C | 78% | 1012.4 hPa | 0 mm | - | 379 W/m² | - |
| 1778344237 | 20° C | 75% | 1012.6 hPa | 0 mm | - | 342 W/m² | - |
| 1778343935 | 20° C | 77% | 1012.7 hPa | 0 mm | - | 370 W/m² | - |
| 1778343630 | 20° C | 76% | 1012.8 hPa | 0 mm | - | 357 W/m² | - |
| 1778343327 | 20° C | 76% | 1012.8 hPa | 0 mm | - | 481 W/m² | - |
| 1778343022 | 20.56° C | 76% | 1012.9 hPa | 0 mm | - | 550 W/m² | - |
| 1778342718 | 20.56° C | 75% | 1012.9 hPa | 0 mm | - | 581 W/m² | - |
| 1778342414 | 20.56° C | 77% | 1012.8 hPa | 0 mm | - | 450 W/m² | - |
| 1778342110 | 20° C | 77% | 1013.1 hPa | 0 mm | - | 456 W/m² | - |
| 1778341806 | 20° C | 76% | 1012.8 hPa | 0 mm | - | 508 W/m² | - |
| 1778341503 | 20° C | 75% | 1012.8 hPa | 0 mm | - | 515 W/m² | - |
| 1778341200 | 20° C | 75% | 1012.9 hPa | 0 mm | - | 552 W/m² | - |
| 1778340897 | 19.44° C | 77% | 1012.8 hPa | 0 mm | - | 571 W/m² | - |
| 1778340594 | 18.89° C | 76% | 1012.8 hPa | 0 mm | - | 731 W/m² | - |
| 1778340289 | 18.33° C | 80% | 1013 hPa | 0 mm | - | 821 W/m² | - |
| 1778339987 | 18.33° C | 81% | 1013 hPa | 0 mm | - | 313 W/m² | - |
| 1778339683 | 18.33° C | 81% | 1013.2 hPa | 0 mm | - | 483 W/m² | - |
| 1778339381 | 17.78° C | 86% | 1013.1 hPa | 0 mm | - | 202 W/m² | - |
* Rain latest hour (hover to see other rain measurements)
** Current wind speed in m/s (hover to see current wind gust speed)